Weather History for Martha's Vineyard, MA

Change the Weather History Date:

Tuesday, July 15, 2014

  Actual Average Record
Temperature  
Mean Temperature 73 °F -  
Max Temperature 75 °F 78 °F 92 °F (1952)
Min Temperature 71 °F 62 °F 33 °F (1996)
Cooling Degree Days 8    
Growing Degree Days 23 (Base 50)    
Moisture  
Dew Point 71 °F    
Average Humidity 96    
Maximum Humidity 100    
Minimum Humidity 89    
Precipitation  
Precipitation 0.00 in - - ()
Sea Level Pressure  
Sea Level Pressure 29.85 in    
Wind  
Wind Speed 14 mph (South)    
Max Wind Speed 18 mph    
Max Gust Speed 25 mph    
Visibility 5 miles    
Events Fog , Rain    
Averages and records for this station are not official NWS values.
T = Trace of Precipitation, MM = Missing Value Source: NWS Daily Summary

Daily Weather History Graph

Daily Weather History Graph

Search for Another Location

Airport:

Trip Planner

Search our weather history database for the weather conditions in past years. The results will help you decide how hot, cold, wet, or windy it might be!

Date:

Astronomy

Jul. 15, 2014 Rise Set
Actual Time 5:22 AM EDT 8:14 PM EDT
Civil Twilight 4:49 AM EDT 8:47 PM EDT
Nautical Twilight 4:07 AM EDT 9:28 PM EDT
Astronomical Twilight 3:19 AM EDT 10:16 PM EDT
Moon 10:16 PM EDT (7/15) 9:15 AM EDT (7/15)
Length of Visible Light 15h 58m
Length of Day
14h 52m
Waning Gibbous, 85% of the Moon is Illuminated
Jul 15
Waning Gibbous
Jul 18
Last Quarter
Jul 26
New
Aug 3
First Quarter
Aug 10
Full

Hourly Weather History & Observations

Time (EDT) Temp. Dew Point Humidity Pressure Visibility Wind Dir Wind Speed Gust Speed Precip Events Conditions
12:53 AM 71.1 °F 71.1 °F 100% 29.91 in 7.0 mi SSW 11.5 mph - N/A   Overcast
1:12 AM 71.1 °F 71.1 °F 100% 29.90 in 1.8 mi SSW 10.4 mph - N/A   Overcast
1:53 AM 71.1 °F 71.1 °F 100% 29.88 in 0.5 mi South 12.7 mph - N/A Fog Fog
2:53 AM 71.1 °F 71.1 °F 100% 29.87 in 0.8 mi South 15.0 mph - N/A   Mist
3:07 AM 71.1 °F 71.1 °F 100% 29.87 in 1.0 mi South 16.1 mph - N/A   Mist
3:36 AM 71.1 °F 71.1 °F 100% 29.86 in 2.5 mi South 16.1 mph 23.0 mph N/A   Overcast
3:43 AM 71.1 °F 71.1 °F 100% 29.86 in 5.0 mi South 13.8 mph - N/A   Overcast
3:53 AM 71.1 °F 71.1 °F 100% 29.86 in 6.0 mi South 15.0 mph - N/A   Overcast
4:53 AM 71.1 °F 71.1 °F 100% 29.85 in 6.0 mi South 12.7 mph - N/A   Overcast
5:53 AM 71.1 °F 71.1 °F 100% 29.85 in 4.0 mi South 16.1 mph - N/A   Overcast
6:53 AM 71.1 °F 71.1 °F 100% 29.85 in 5.0 mi South 13.8 mph - N/A   Overcast
7:53 AM 72.0 °F 71.1 °F 97% 29.85 in 6.0 mi SSW 15.0 mph - N/A   Overcast
8:53 AM 71.1 °F 70.0 °F 96% 29.86 in 3.0 mi South 12.7 mph - N/A   Overcast
8:56 AM 71.1 °F 70.0 °F 96% 29.86 in 1.0 mi South 13.8 mph - 0.00 in Rain Light Rain
9:53 AM 71.1 °F 71.1 °F 100% 29.85 in 1.0 mi South 16.1 mph 25.3 mph 0.00 in   Overcast
10:53 AM 73.0 °F 72.0 °F 96% 29.86 in 3.0 mi SSW 13.8 mph 21.9 mph N/A   Overcast
11:53 AM 73.0 °F 71.1 °F 93% 29.86 in 3.0 mi SSW 16.1 mph - N/A   Overcast
12:49 PM 75.2 °F 71.6 °F 89% 29.85 in 9.0 mi SSW 17.3 mph 21.9 mph N/A   Overcast
12:53 PM 75.0 °F 72.0 °F 90% 29.85 in 8.0 mi SSW 13.8 mph 21.9 mph N/A   Overcast
1:20 PM 73.9 °F 72.0 °F 93% 29.85 in 8.0 mi SSW 17.3 mph 24.2 mph N/A   Overcast
1:53 PM 73.9 °F 72.0 °F 93% 29.85 in 8.0 mi SSW 16.1 mph - N/A   Overcast
2:53 PM 75.0 °F 72.0 °F 90% 29.85 in 9.0 mi South 15.0 mph - N/A   Overcast
3:53 PM 75.0 °F 72.0 °F 90% 29.83 in 9.0 mi South 17.3 mph - N/A   Overcast
4:53 PM 75.0 °F 72.0 °F 90% 29.82 in 9.0 mi South 18.4 mph 25.3 mph N/A   Overcast
5:53 PM 73.9 °F 71.1 °F 91% 29.82 in 8.0 mi South 13.8 mph - N/A   Overcast
6:10 PM 73.9 °F 72.0 °F 93% 29.82 in 8.0 mi South 10.4 mph - N/A   Overcast
6:34 PM 73.0 °F 71.1 °F 93% 29.82 in 8.0 mi South 11.5 mph - N/A   Overcast
6:53 PM 73.0 °F 71.1 °F 93% 29.83 in 6.0 mi South 12.7 mph - N/A   Overcast
7:12 PM 73.0 °F 72.0 °F 96% 29.83 in 2.5 mi South 12.7 mph - N/A   Overcast
7:33 PM 72.0 °F 71.1 °F 97% 29.84 in 4.0 mi South 13.8 mph - N/A   Overcast
7:53 PM 72.0 °F 72.0 °F 100% 29.85 in 2.0 mi South 12.7 mph - N/A   Overcast
8:00 PM 72.0 °F 72.0 °F 100% 29.85 in 1.5 mi South 13.8 mph - 0.00 in Rain Light Rain
8:19 PM 72.0 °F 71.1 °F 97% 29.85 in 3.0 mi South 13.8 mph - 0.00 in Rain Light Rain
8:53 PM 72.0 °F 72.0 °F 100% 29.84 in 4.0 mi South 15.0 mph 23.0 mph 0.00 in   Overcast
9:53 PM 72.0 °F 71.1 °F 97% 29.85 in 7.0 mi South 15.0 mph 23.0 mph N/A   Overcast
10:00 PM 72.0 °F 71.1 °F 97% 29.85 in 7.0 mi South 17.3 mph - N/A   Overcast
10:53 PM 72.0 °F 71.1 °F 97% 29.85 in 6.0 mi South 18.4 mph - N/A   Overcast
11:53 PM 72.0 °F 71.1 °F 97% 29.84 in 7.0 mi South 15.0 mph - N/A   Overcast